Terug naar catalogus

STARLINK-2571

ActiefCommunicatieVLEO
NORAD 48401·PAYLOAD·🇺🇸 United States

Gelanceerd May 4, 2021 vanaf Cape Canaveral Space Force Station

Loading…

Volgende Passages (komende 24 uur)

TLE

VersSource: CelesTrak SupGP

Epoch: Sep 14, 2026, 13:25 UTC

1 48401C 21038BA  26257.55951389  .00023987  00000+0  77170-3 0  2578
2 48401  53.1600 173.9346 0001330  96.8057 293.8315 15.31676274    13

Volg STARLINK-2571 in realtime met AllMySat

Download on the App Store